Location: Chiroubles
(46.1812°N, 4.6660°E)
Time: 19:09:18
(UTC+00:00)

Cosmos 1805 Rocket - Pass Details

Date: 15 August 2020
Orbit: 605 x 631 km, 82.5° (Epoch: 24 September)

Event Time Altitude Azimuth Distance (km) Brightness Sun altitude
Rises 19:13:57 0° 187° (S) 2,899 6.8 -4.7°
Reaches altitude 10° 19:16:10 10° 187° (S) 1,999 6.0 -5.0°
Maximum altitude 19:20:37 89° 103° (ESE) 637 3.6 -5.7°
Drops below altitude 10° 19:25:07 10° 9° (N) 2,022 6.5 -6.4°
Sets 19:27:22 0° 10° (N) 2,935 7.3 -6.8°
